FW6155 Weather Reports


Display with metric or nautical units.
time (UTC)temp
F
wind
direction
speed
MPH
gust
MPH
rain 1hr
in
rain 24hr
in
rain mn
in
humidity
%
barometer
mb
20260502191553 66 0.0 0.0 0.00 0.00 0.00 67 1017.1
20260502190101 65 0.0 0.0 0.00 0.00 0.00 69 1017.2
20260502184555 64 0.0 0.0 0.00 0.00 0.00 70 1017.4
20260502183044 63 0.0 0.0 0.00 0.00 0.00 71 1017.4
20260502181543 63 0.0 0.0 0.00 0.00 0.00 72 1017.6
20260502180120 62 0.0 0.0 0.00 0.00 0.00 73 1017.5
20260502163050 58 0.0 0.0 0.00 0.00 0.00 79 1018.2
20260502161539 57 0.0 0.0 0.00 0.00 0.00 79 1018.2
20260502151555 54 0.0 0.0 0.00 0.00 0.00 85 1018.0
20260502123042 53 0.0 0.0 0.00 0.00 0.00 85 1018.0
20260502121543 53 0.0 0.0 0.00 0.00 0.00 85 1018.0
20260502114545 53 0.0 0.0 0.00 0.00 0.00 84 1018.0
20260502113044 53 0.0 0.0 0.00 0.00 0.00 85 1018.1
20260502111554 53 0.0 0.0 0.00 0.00 0.00 85 1018.6
20260502110048 53 0.0 0.0 0.00 0.00 0.00 84 1018.5
20260502104545 53 0.0 0.0 0.00 0.00 0.00 83 1018.1
20260502103053 53 0.0 0.0 0.00 0.00 0.00 82 1017.9
20260502101605 54 0.0 0.0 0.00 0.00 0.00 81 1017.6
20260502070044 59 0.0 0.0 0.00 0.00 0.00 63 1017.4
20260502064548 60 0.0 0.0 0.00 0.00 0.00 63 1017.4
20260502063103 60 0.0 0.0 0.00 0.00 0.00 60 1017.2
20260502061539 60 0.0 0.0 0.00 0.00 0.00 62 1017.2
20260502060047 60 0.0 0.0 0.00 0.00 0.00 64 1017.3
20260502054547 61 0.0 0.0 0.00 0.00 0.00 66 1017.0
20260502053053 61 0.0 0.0 0.00 0.00 0.00 64 1016.7
20260502051555 61 0.0 0.0 0.00 0.00 0.00 70 1016.7
20260502050042 61 0.0 0.0 0.00 0.00 0.00 73 1016.6
20260502044550 61 0.0 0.0 0.00 0.00 0.00 72 1016.6
20260502043051 62 0.0 0.0 0.00 0.00 0.00 71 1016.5
20260502041546 62 0.0 0.0 0.00 0.00 0.00 69 1016.3
20260502040049 63 0.0 0.0 0.00 0.00 0.00 68 1016.2
20260502034543 63 0.0 0.0 0.00 0.00 0.00 66 1016.0
20260502033047 64 0.0 0.0 0.00 0.00 0.00 66 1015.9
20260502031543 64 0.0 0.0 0.00 0.00 0.00 64 1015.7
20260502030049 65 0.0 0.0 0.00 0.00 0.00 62 1015.6
20260502024550 67 0.0 0.0 0.00 0.00 0.00 58 1015.2
20260502023057 67 0.0 0.0 0.00 0.00 0.00 57 1015.4
20260502021549 68 0.0 0.0 0.00 0.00 0.00 54 1015.2
20260502020045 68 0.0 0.0 0.00 0.00 0.00 55 1015.2
20260502014549 69 0.0 0.0 0.00 0.00 0.00 53 1015.2
20260502013057 69 0.0 0.0 0.00 0.00 0.00 49 1015.3
20260502011603 70 0.0 0.0 0.00 0.00 0.00 50 1015.3
20260502010052 70 0.0 0.0 0.00 0.00 0.00 49 1015.3
20260502004559 70 0.0 0.0 0.00 0.00 0.00 49 1015.4
20260502003045 70 0.0 0.0 0.00 0.00 0.00 50 1015.4
20260502001544 70 0.0 0.0 0.00 0.00 0.00 52 1015.3
20260502000055 70 0.0 0.0 0.00 0.00 0.00 51 1015.3
20260501234544 70 0.0 0.0 0.00 0.00 0.00 51 1015.2
20260501233041 70 0.0 0.0 0.00 0.00 0.00 50 1015.3
20260501231552 71 0.0 0.0 0.00 0.00 0.00 50 1015.4
20260501230045 71 0.0 0.0 0.00 0.00 0.00 48 1015.6
20260501224545 70 0.0 0.0 0.00 0.00 0.00 47 1015.8
20260501223043 70 0.0 0.0 0.00 0.00 0.00 48 1016.0
20260501221559 71 0.0 0.0 0.00 0.00 0.00 47 1016.1
20260501220044 71 0.0 0.0 0.00 0.00 0.00 46 1016.0
20260501214546 71 0.0 0.0 0.00 0.00 0.00 49 1016.1
20260501213047 71 0.0 0.0 0.00 0.00 0.00 48 1016.2
20260501211551 71 0.0 0.0 0.00 0.00 0.00 49 1016.2
20260501210043 70 0.0 0.0 0.00 0.00 0.00 50 1016.2
20260501204542 70 0.0 0.0 0.00 0.00 0.00 54 1016.3
20260501203047 70 0.0 0.0 0.00 0.00 0.00 54 1016.2
20260501201546 69 0.0 0.0 0.00 0.00 0.00 54 1016.4
20260501200045 70 0.0 0.0 0.00 0.00 0.00 55 1016.4
20260501194549 69 0.0 0.0 0.00 0.00 0.00 55 1016.4
20260501193044 69 0.0 0.0 0.00 0.00 0.00 56 1016.6